Regional Weather Roundup
Issued by NWS Raleigh/Durham, NC

Home | Current Version | Previous Version | Text Only | Print | Product List | Glossary On
Versions: 1 2 3 4 5 6 7 8 9 10 11 12 13 14 15 16 17 18 19 20 21 22 23 24 25 26 27 28 29 30 31 32 33 34 35 36 37 38 39 40 41 42 43 44 45 46 47 48 49 50
790
ASUS42 KRAH 252110
RWRRAH
NORTH CAROLINA WEATHER ROUNDUP
NATIONAL WEATHER SERVICE RALEIGH NC
500 PM EDT MON SEP 25 2017

NOTE: "FAIR" INDICATES FEW OR NO CLOUDS BELOW 12,000 FEET WITH NO
SIGNIFICANT WEATHER AND/OR OBSTRUCTIONS TO VISIBILITY.

NCZ001-053-055-056-065-067-252200-
WESTERN NORTH CAROLINA

CITY           SKY/WX    TMP DP  RH WIND       PRES   REMARKS
ASHEVILLE      SUNNY     82  57  42 VRB3      30.03F
JEFFERSON      SUNNY     73  57  57 NE5       30.11F
MORGANTON      MOSUNNY   81  61  50 N5        30.03F
HICKORY        MOSUNNY   81  65  58 N8        29.99F
RUTHERFORDTON  SUNNY     84  61  45 N9        29.99S
MOUNT AIRY     MOSUNNY   84  62  46 E8        30.02F
BOONE          SUNNY     75  55  49 NE6       30.11F
$$

NCZ021-022-025-041-071-084-088-252200-
CENTRAL NORTH CAROLINA

CITY           SKY/WX    TMP DP  RH WIND       PRES   REMARKS
CHARLOTTE      PTSUNNY   84  63  49 N13       29.95F
GREENSBORO     CLOUDY    84  64  50 NE9       29.97F
WINSTON-SALEM  MOSUNNY   83  62  49 NE13G22   29.99S
RALEIGH-DURHAM PTSUNNY   82  66  58 NE9       29.94F
FORT BRAGG     CLOUDY    80  67  63 N7        29.91F
FAYETTEVILLE   CLOUDY    80  69  69 N12       29.91F
BURLINGTON     MOSUNNY   85  62  46 NE9       29.95F
LAURINBURG     MOSUNNY   83  67  58 NE16      29.92F
$$

NCZ011-015-027-028-043-044-047-080-103-252200-
NORTHEASTERN NORTH CAROLINA

CITY           SKY/WX    TMP DP  RH WIND       PRES   REMARKS
ROCKY MT-WILSO MOSUNNY   82  69  64 N9        29.92F
GREENVILLE     PTSUNNY   81  68  65 NE8G16    29.92F
WASHINGTON     CLOUDY    82  70  67 NE14      29.89F
ELIZABETH CITY CLOUDY    74  71  91 NE20G25   29.93S
MANTEO         CLOUDY    73  69  88 NE17      29.90F
CAPE HATTERAS  CLOUDY    77  74  90 NE15G26   29.83F
$$

NCZ078-087-090-091-093-098-101-252200-
SOUTHEASTERN NORTH CAROLINA

CITY           SKY/WX    TMP DP  RH WIND       PRES   REMARKS
LUMBERTON      NOT AVBL
GOLDSBORO      PTSUNNY   80  73  77 NE13      29.88F
KINSTON        PTSUNNY   82  68  61 NE14G22   29.90
KENANSVILLE    CLOUDY    79  70  73 N10       29.89S
NEW BERN       CLOUDY    78  72  81 NE14G22   29.88S
CHERRY POINT   CLOUDY    79  73  82 N17       29.85F
BEAUFORT       CLOUDY    77  74  90 N20G26    29.82F
JACKSONVILLE   CLOUDY    79  72  79 N14       29.85S
WILMINGTON     CLOUDY    79  71  76 N10       29.85S
$$





USA.gov is the U.S. government's official web portal to all federal, state and local government web resources and services.